Dewpoint
21 21 21 21 21 20 20 21 22 22 22 23 23 23 23 24 24 24 25 24 23 23 22 22 22 23 24 26 27 28 29 29 30 30 30 31 31 31 32 32 33 33 33 34 34 34 34 34 34 35 35 35 35 36 36 37 37 37 38 38 39 39 39 39 40 40 40 41 41 41 41 41 41 41 41 41 41 41 41 41 41 41 41 41 41 41
21 21 21 22 21 21 20 21 22 22 23 23 23 23 23 23 23 23 24 24 23 23 22 22 22 22 22 24 26 27 28 29 29 30 30 30 31 31 32 32 33 33 33 33 34 34 34 34 34 34 35 35 35 35 36 36 36 37 37 37 38 38 39 39 39 39 39 40 40 40 40 40 40 39 39 39 39 40 40 40 40 40 40 40 40 41
21 21 21 21 21 21 21 21 22 23 23 23 23 23 23 23 23 23 23 22 23 23 22 22 21 21 21 23 25 27 27 28 28 29 30 30 30 31 32 32 32 33 33 33 33 33 34 34 34 34 34 34 35 35 35 36 36 36 36 37 37 37 38 38 38 39 39 39 39 39 39 39 38 38 38 39 39 39 39 39 40 40 40 40 40 40
21 20 20 21 21 21 21 22 23 24 24 24 24 24 23 23 23 23 23 22 22 22 22 21 21 21 21 21 23 25 27 27 28 29 29 30 30 31 31 32 32 32 33 33 33 33 33 34 34 34 34 34 34 34 35 35 35 35 36 36 36 37 37 37 37 37 37 37 37 37 37 37 37 37 38 38 39 39 39 39 39 39 39 39 39 40
21 21 20 21 21 21 22 23 24 24 25 24 24 23 23 23 23 23 23 23 22 22 21 21 21 20 20 20 22 25 26 27 27 28 29 29 30 30 30 31 31 32 32 32 33 33 33 33 34 34 34 34 34 34 34 34 34 35 35 35 36 36 36 36 36 36 36 36 36 36 36 36 36 37 37 37 38 38 38 38 39 39 39 39 39 39
22 21 21 21 21 22 23 24 24 25 24 24 24 24 24 24 24 23 23 23 22 22 22 21 20 20 19 19 21 23 25 26 27 27 28 28 29 29 30 30 31 31 32 32 32 33 33 33 33 34 34 34 34 34 34 34 34 34 34 35 35 35 35 35 35 35 35 35 35 35 35 35 36 36 36 36 37 37 38 38 38 38 38 39 39 39
22 22 22 22 23 23 24 24 24 24 23 23 24 24 24 24 24 23 23 23 22 22 21 21 20 19 18 19 21 22 24 25 25 26 27 27 28 28 29 30 30 30 31 31 32 32 33 33 33 33 33 33 33 33 34 34 34 34 34 34 34 34 34 34 34 34 34 34 34 34 34 35 35 35 35 36 36 36 37 37 37 38 38 38 38 39
22 22 23 23 24 24 24 24 24 24 24 24 23 23 23 22 23 23 24 24 23 22 21 20 19 19 17 18 19 20 21 21 22 23 24 25 26 27 28 29 30 30 30 31 31 32 32 32 32 33 33 33 33 33 33 33 33 33 33 33 33 33 33 34 34 34 34 34 34 34 34 34 34 34 35 35 35 35 36 36 37 37 38 38 38 39
22 22 23 24 24 24 24 24 24 25 25 25 24 23 22 21 21 22 23 23 22 21 19 19 18 18 17 18 18 19 20 21 21 21 22 23 24 25 27 29 29 30 30 30 31 31 31 32 32 32 32 32 32 32 32 32 32 32 32 32 32 33 33 33 33 33 33 33 34 34 34 34 34 34 34 34 34 35 35 35 36 37 38 38 39 39
24 24 24 24 25 25 25 24 24 25 26 25 24 24 22 21 21 21 21 20 20 20 19 19 18 18 18 19 19 20 21 22 23 24 25 25 25 26 27 28 28 29 30 30 30 30 31 31 31 31 31 31 31 31 31 31 31 31 31 31 32 32 32 32 33 33 33 33 33 33 34 34 34 34 34 34 34 35 35 35 36 37 38 38 39 39
25 25 25 25 25 26 26 25 25 25 25 24 23 22 22 21 21 20 19 19 19 19 19 19 19 18 18 19 19 20 21 21 22 24 26 26 27 27 27 27 27 28 29 29 29 29 30 30 30 30 30 30 30 30 30 30 30 30 31 31 31 31 31 32 32 32 33 33 33 33 34 34 34 34 34 34 35 35 35 36 36 37 38 38 39 39
25 25 25 25 25 25 25 25 24 24 24 22 21 20 20 21 21 21 19 18 18 18 18 18 19 19 20 19 19 20 21 21 21 22 23 24 25 25 25 24 25 25 26 27 27 27 28 28 28 28 29 29 29 29 29 29 30 30 30 30 30 30 31 31 32 32 33 33 33 34 34 34 34 34 34 35 35 35 36 36 36 37 37 38 38 39
25 25 25 25 25 24 23 22 22 21 21 20 19 18 19 20 21 21 21 19 19 18 18 18 19 20 21 21 21 21 21 21 21 21 21 22 22 22 21 21 21 22 22 22 23 24 26 26 27 27 28 28 28 28 29 28 29 29 29 30 30 30 31 31 32 32 33 33 33 33 34 34 34 34 34 35 35 35 36 36 36 36 37 37 38 38
25 25 25 25 24 22 21 21 20 20 19 19 19 20 20 20 20 20 20 19 19 19 19 19 19 19 20 21 21 21 21 21 21 21 21 21 21 22 21 21 21 21 21 20 21 21 24 25 25 25 26 26 27 27 27 27 28 28 29 30 30 30 31 31 32 32 33 33 33 33 34 34 34 34 34 35 35 35 36 36 36 36 37 37 37 38
25 25 24 23 22 21 21 20 20 20 19 20 20 20 20 20 19 19 18 18 19 19 20 20 19 19 20 20 21 21 21 21 21 20 20 21 22 23 23 21 20 20 20 20 20 21 24 24 23 22 23 24 24 25 25 26 28 29 29 30 30 31 31 32 32 32 32 32 33 33 33 33 34 34 34 34 35 35 35 36 36 36 37 37 37 38
25 24 23 23 22 21 21 21 20 20 20 20 20 20 19 19 19 19 19 20 20 21 20 20 19 19 19 21 21 21 21 21 20 20 19 20 21 21 22 21 20 20 20 20 20 21 23 22 21 21 21 23 25 26 27 27 28 29 30 30 30 31 31 32 32 32 32 32 32 33 33 33 33 34 34 34 34 35 35 35 36 36 36 37 37 38
25 24 23 22 21 21 21 20 20 20 20 20 20 20 19 20 20 21 21 22 21 21 20 20 19 19 19 20 21 21 21 21 20 20 19 19 20 21 22 21 20 20 20 20 20 20 21 21 21 21 21 24 25 27 27 28 29 29 30 30 30 31 31 31 32 32 32 32 32 32 33 33 33 33 34 34 34 34 35 35 35 36 36 37 37 37
24 23 23 22 21 21 20 20 20 20 21 20 20 20 21 22 23 24 23 22 21 21 20 20 20 20 19 19 20 21 22 21 20 20 19 19 20 21 23 21 20 19 19 20 20 20 21 21 22 22 23 25 27 27 28 29 29 30 30 30 30 30 31 31 31 32 32 32 32 32 33 33 33 33 33 34 34 34 34 35 35 35 36 36 36 36
23 23 22 21 21 20 20 19 19 19 19 20 21 22 24 24 24 23 22 21 21 21 21 21 21 21 20 20 20 21 21 21 20 20 19 19 19 20 21 21 20 20 19 20 20 21 21 22 25 26 26 27 27 28 28 29 29 29 30 30 30 30 31 31 31 32 32 32 32 32 32 33 33 33 33 33 34 34 34 34 35 35 35 35 35 36
23 22 21 21 20 20 20 20 20 21 22 24 25 25 25 24 23 22 21 21 22 22 23 23 22 21 20 20 20 20 21 21 20 20 20 19 19 19 20 20 19 19 18 19 19 20 20 22 24 25 25 26 27 27 28 28 29 29 30 30 30 30 31 31 31 32 32 32 32 32 32 32 33 33 33 33 33 34 34 34 34 34 34 34 35 35
22 21 21 21 21 21 21 21 22 24 25 27 26 25 24 23 22 22 22 23 23 24 23 22 21 20 20 19 20 21 22 21 21 20 20 19 19 19 20 19 19 18 18 19 19 20 20 21 22 22 24 25 26 27 28 28 29 29 30 30 30 30 30 31 31 31 32 32 32 32 32 32 32 32 33 33 33 33 33 34 34 34 34 34 34 35
22 21 21 21 22 22 23 24 25 26 27 27 26 24 23 23 23 24 24 25 24 23 22 21 21 20 20 20 21 21 22 21 21 20 20 20 19 19 19 19 18 18 18 18 19 19 20 21 21 21 24 25 27 27 28 28 29 29 30 30 30 30 30 31 31 31 32 32 32 32 32 32 32 32 32 32 33 33 33 33 34 34 34 34 34 34
24 23 22 23 24 25 25 26 26 26 26 27 26 26 26 27 27 26 25 24 23 22 21 21 21 21 21 21 21 21 22 22 21 21 20 19 19 18 18 18 18 18 18 18 18 19 19 19 19 21 23 25 27 27 28 28 29 29 29 30 30 30 30 30 31 31 31 31 32 32 32 32 32 32 32 32 32 32 33 33 33 33 34 34 34 34
24 24 25 25 27 28 27 26 26 27 28 28 29 29 30 29 27 25 24 23 22 22 22 21 21 21 21 21 21 21 21 21 21 21 20 19 19 18 18 18 18 18 18 18 18 19 19 19 19 20 21 25 26 27 27 28 28 29 29 30 30 30 30 30 30 30 31 31 31 31 31 31 31 32 32 32 32 32 32 32 32 33 33 33 33 34
25 25 25 25 27 29 28 28 29 29 29 29 28 27 26 25 25 24 23 23 22 22 22 21 21 21 20 20 20 20 20 21 21 21 20 19 19 19 19 19 18 18 18 18 19 19 19 19 19 20 21 23 25 26 27 28 28 28 29 29 29 30 30 30 30 30 30 30 31 31 31 31 31 31 31 31 31 31 31 32 32 32 32 32 33 33
26 26 26 27 28 29 29 29 29 29 28 27 25 25 24 24 23 23 22 22 21 21 21 21 20 20 19 19 19 19 20 20 21 20 20 19 19 19 19 19 18 18 18 19 19 19 19 19 19 20 20 21 23 25 27 27 27 28 28 28 29 29 29 30 30 30 30 30 30 30 31 31 31 31 31 31 31 31 31 31 31 32 32 32 32 33
27 28 28 28 28 28 28 28 28 28 28 27 27 26 25 24 22 21 21 21 21 21 20 19 19 19 19 19 19 19 19 20 20 20 20 19 19 19 19 19 19 18 18 19 20 20 20 20 20 20 20 20 21 24 25 26 27 27 28 28 28 29 29 29 29 30 30 30 30 30 30 30 30 31 31 31 31 31 31 31 31 31 31 31 31 31
27 27 27 27 27 27 27 27 27 27 27 27 27 27 25 23 21 21 20 20 20 20 20 19 18 18 18 18 18 19 19 20 20 20 20 20 19 19 19 19 19 19 19 20 20 21 21 21 20 20 20 20 21 22 24 25 26 27 27 28 28 28 28 29 29 29 29 29 30 30 30 30 30 30 30 30 30 31 31 31 31 31 30 30 29 29
25 25 25 25 25 25 25 25 25 25 26 26 26 26 25 23 21 21 21 21 21 20 20 19 19 18 18 18 18 19 19 20 20 20 20 20 19 19 19 20 20 19 19 20 20 20 20 20 20 19 20 21 21 21 22 24 25 25 26 27 27 27 28 28 28 28 28 29 29 29 30 30 30 30 30 30 30 30 30 30 30 30 29 28 27 27
23 23 22 22 23 22 22 22 22 23 24 25 25 25 25 24 22 22 21 21 21 20 19 19 19 18 18 18 18 18 18 19 20 20 20 19 19 19 19 20 20 20 20 20 19 18 18 19 20 20 20 21 21 21 21 21 22 23 23 25 25 26 27 27 27 28 28 28 29 29 29 29 29 30 30 30 30 30 30 30 30 29 27 26 26 27
21 20 20 20 20 20 20 20 20 21 22 23 24 24 24 23 22 22 21 21 21 20 19 19 19 18 18 18 17 17 17 19 20 21 20 20 19 19 20 20 20 20 20 20 19 17 17 18 19 20 21 21 21 21 21 21 21 21 21 21 23 24 25 26 26 27 27 28 28 28 28 29 29 29 29 29 29 30 30 30 29 28 26 26 26 26
20 19 19 18 18 18 18 19 19 20 21 21 22 22 22 22 22 21 21 21 21 20 20 20 19 19 19 18 18 17 17 19 20 21 21 20 20 20 20 20 20 20 20 21 20 18 17 17 18 19 20 20 20 21 21 21 21 21 21 21 21 22 25 25 25 25 26 26 27 27 28 28 28 28 28 29 29 29 29 29 29 28 26 26 25 25
19 18 18 18 18 18 18 19 19 20 20 20 21 21 21 21 21 21 21 21 21 21 21 21 20 20 19 19 19 18 19 19 21 21 22 21 21 21 20 20 20 20 20 20 20 19 18 18 18 19 19 20 20 21 21 21 21 21 21 21 21 22 23 24 24 24 24 25 25 26 27 27 27 28 28 28 29 29 29 29 29 28 27 26 25 25
18 18 17 17 18 18 19 19 20 20 20 20 20 20 21 21 21 21 21 21 21 21 21 21 21 20 19 19 19 19 19 20 21 22 22 21 21 21 21 20 20 20 20 20 19 19 19 18 18 18 18 19 20 20 21 21 21 21 21 21 21 21 22 22 22 22 23 23 24 24 25 25 26 27 27 27 28 28 28 29 29 29 28 27 26 26
17 17 17 18 18 19 19 20 20 20 20 20 20 20 21 21 21 21 21 21 21 21 21 21 21 21 20 20 19 19 19 20 21 22 23 22 22 21 21 21 20 20 20 19 19 18 18 18 18 18 18 18 19 20 20 21 21 22 22 22 21 21 21 21 22 22 22 22 22 23 23 23 24 25 25 26 27 27 28 28 29 29 29 29 28 27
17 17 18 18 19 19 19 20 20 20 20 20 20 20 20 21 21 21 21 21 21 21 22 22 22 22 21 21 21 20 20 20 21 23 24 23 23 22 21 21 20 20 20 19 19 18 18 18 18 19 19 18 18 19 20 21 21 21 22 22 22 22 22 22 22 22 22 22 22 22 22 23 23 24 24 26 27 28 28 29 29 29 29 30 30 29
18 18 18 18 19 19 19 19 20 20 20 20 20 20 21 21 21 21 21 22 22 22 22 22 22 23 23 23 22 22 22 21 22 23 24 24 24 23 22 21 21 21 21 20 20 19 19 18 18 18 18 17 17 18 19 20 21 21 21 21 22 22 22 23 23 23 22 22 23 23 23 23 23 24 25 26 27 27 28 28 29 29 29 29 29 30
18 18 18 18 19 19 19 19 19 20 20 20 20 20 21 21 21 22 22 23 24 24 23 22 23 23 24 24 25 25 24 23 23 24 25 25 25 24 23 22 22 22 21 21 21 20 20 19 18 17 17 17 18 19 19 20 20 20 21 21 22 22 22 23 23 23 23 23 23 24 24 24 24 24 25 25 25 25 25 26 26 27 28 28 29 29
18 18 18 19 19 19 19 19 19 20 20 20 20 21 21 21 22 23 23 23 24 24 23 23 23 23 24 25 26 26 25 25 26 26 27 27 26 25 24 23 22 22 22 22 22 21 21 20 19 18 17 17 18 19 19 20 19 20 20 21 21 22 22 22 23 23 23 23 23 24 24 24 24 24 24 24 24 24 24 24 25 26 26 26 26 27
18 19 18 19 19 19 19 19 20 20 20 21 21 21 21 21 21 22 23 22 22 22 22 22 22 22 23 24 24 25 25 27 27 27 27 28 27 26 25 24 23 22 22 23 22 22 21 21 20 19 19 19 19 19 19 19 20 20 21 21 21 21 22 22 22 23 23 23 23 23 23 23 24 24 24 24 24 24 24 24 24 25 25 25 25 25
18 18 18 19 19 19 20 20 20 20 21 21 21 21 21 21 21 21 21 21 21 21 21 22 22 22 22 23 23 23 24 26 26 26 28 28 28 27 25 24 24 23 23 22 22 22 22 21 21 20 20 20 20 20 20 20 21 21 22 21 21 21 21 22 23 23 23 23 23 23 24 24 24 24 24 24 24 24 25 25 25 25 25 25 24 24
19 18 18 18 19 19 20 20 21 21 21 21 21 20 20 20 20 20 20 20 21 21 21 21 21 21 21 21 22 22 23 24 25 26 28 28 28 27 26 25 24 24 23 23 22 22 22 22 21 21 20 20 20 20 20 20 21 21 21 21 21 21 22 22 23 23 23 23 23 23 24 24 23 24 24 24 24 25 25 25 25 26 25 25 25 25
18 18 18 19 19 20 21 21 21 21 21 20 20 20 20 20 20 20 20 20 20 21 21 21 21 21 21 20 21 21 23 24 25 25 26 27 28 28 26 25 25 25 24 23 22 22 22 22 22 21 21 21 21 21 20 20 21 21 21 21 21 21 21 21 21 22 22 23 23 23 23 23 23 24 24 24 24 25 25 26 26 27 26 25 25 25
18 19 19 19 20 20 21 21 20 20 20 20 20 20 20 20 21 21 21 20 20 21 21 21 21 21 20 20 20 20 21 23 24 25 25 26 27 28 27 26 25 25 25 24 23 22 22 21 21 21 21 21 21 21 21 21 21 21 21 21 22 21 21 21 21 22 22 23 23 24 24 24 24 24 24 24 24 25 25 25 25 25 26 26 26 25
18 19 19 20 20 20 20 20 20 20 20 19 19 20 20 20 21 21 21 20 20 20 20 21 20 20 19 19 19 20 21 21 22 23 24 25 26 27 27 26 25 25 25 25 24 23 22 21 21 21 21 22 22 21 21 21 21 21 21 22 22 22 22 22 22 23 22 23 23 23 24 25 25 24 24 24 24 24 25 25 25 25 25 26 26 26
19 19 19 19 19 19 20 19 19 19 19 19 19 20 20 20 21 21 21 20 20 20 20 21 20 20 19 19 19 19 19 20 20 21 21 23 24 25 25 25 25 25 25 25 25 25 24 23 23 22 22 22 22 21 21 21 21 21 21 22 22 22 22 22 23 23 23 23 23 24 24 25 25 24 24 24 24 24 24 25 25 25 25 26 26 26
19 19 19 19 19 19 19 19 19 19 19 19 19 20 20 20 20 20 20 21 20 20 21 21 20 20 19 19 19 19 19 19 20 20 21 21 22 23 23 24 25 25 25 25 25 25 25 25 25 25 24 23 22 21 21 21 21 21 21 22 22 22 22 22 22 23 23 23 24 24 25 25 25 24 24 24 24 24 24 25 25 26 26 26 26 26
19 19 19 19 18 18 18 19 19 19 19 19 19 19 20 20 20 21 20 21 21 21 21 20 19 19 19 19 19 19 19 19 20 20 21 21 21 22 23 23 23 24 24 25 25 25 25 26 26 26 25 24 23 22 21 22 22 22 22 22 22 22 22 22 23 23 24 24 25 26 27 26 25 24 24 24 24 24 24 25 25 26 26 27 26 26
18 18 18 18 18 18 18 18 18 18 18 18 19 19 19 20 21 21 20 20 20 20 20 19 19 19 18 18 19 19 20 20 20 20 20 21 21 22 22 23 23 23 23 23 24 24 24 25 25 25 25 25 24 23 22 22 23 23 23 23 23 23 23 23 23 24 24 25 26 28 28 26 25 25 25 25 25 25 25 25 25 26 26 27 27 27
18 18 18 18 18 18 18 18 18 18 18 19 19 19 19 19 20 20 20 20 20 20 19 19 19 19 18 18 18 19 19 19 20 20 20 21 21 21 22 22 22 22 22 22 22 22 22 23 24 25 25 25 25 24 23 23 23 23 23 23 24 24 24 24 24 24 24 25 26 28 29 28 27 26 26 26 25 25 25 25 25 26 26 26 27 27
17 17 18 18 18 18 18 18 18 18 19 19 19 19 19 19 19 20 20 20 19 19 19 19 19 19 18 18 19 19 20 20 20 20 21 21 21 21 22 22 22 21 21 21 21 21 20 20 20 21 22 25 25 25 23 23 23 23 23 24 24 24 24 24 24 24 25 25 25 26 28 28 27 27 26 26 26 25 25 25 25 25 26 26 26 27